KC4KQE Weather Reports


Display with metric or nautical units.
time (UTC)temp
F
wind
direction
speed
MPH
gust
MPH
rain 1hr
in
rain 24hr
in
rain mn
in
humidity
%
barometer
mb
20200119125938 43 42 0.0 0.0 0.00 0.00 0.00 73 1020.3
20200119125445 43 42 0.0 0.0 0.00 0.00 0.00 74 1020.2
20200119124937 42 42 0.0 0.0 0.00 0.00 0.00 73 1020.2
20200119124438 43 42 0.0 0.0 0.00 0.00 0.00 73 1020.2
20200119123938 43 42 0.0 0.0 0.00 0.00 0.00 74 1020.2
20200119123438 43 42 0.0 0.0 0.00 0.00 0.00 74 1020.2
20200119122945 43 42 0.0 0.0 0.00 0.00 0.00 72 1020.1
20200119122438 44 42 0.0 0.0 0.00 0.00 0.00 71 1020.1
20200119121938 44 42 0.0 0.0 0.00 0.00 0.00 71 1020.1
20200119121437 44 42 0.0 0.0 0.00 0.00 0.00 71 1020.2
20200119120938 44 42 0.0 0.0 0.00 0.00 0.00 71 1020.1
20200119120437 44 42 0.0 0.0 0.00 0.00 0.00 70 1020.2
20200119115938 45 42 0.0 0.0 0.00 0.00 0.00 68 1020.1
20200119115438 45 42 0.0 0.0 0.00 0.00 0.00 69 1020.2
20200119114938 44 42 0.0 0.0 0.00 0.00 0.00 71 1020.2
20200119114437 44 42 0.0 0.0 0.00 0.00 0.00 72 1020.1
20200119113937 44 42 0.0 0.0 0.00 0.00 0.00 70 1020.1
20200119113437 45 42 0.0 0.0 0.00 0.00 0.00 69 1020.0
20200119112941 45 42 0.0 0.0 0.00 0.00 0.00 69 1020.0
20200119112437 45 42 0.0 0.0 0.00 0.00 0.00 70 1020.1
20200119111938 45 42 0.0 0.0 0.00 0.00 0.00 69 1020.1
20200119111441 45 42 0.0 0.0 0.00 0.00 0.00 68 1020.1
20200119110937 46 42 0.0 0.0 0.00 0.00 0.00 67 1020.2
20200119110438 46 42 0.0 0.0 0.00 0.00 0.00 66 1020.2
20200119105937 47 42 0.0 0.0 0.00 0.00 0.00 64 1020.1
20200119105441 47 42 0.0 0.0 0.00 0.00 0.00 64 1020.1
20200119104937 47 42 0.0 0.0 0.00 0.00 0.00 64 1020.2
20200119104437 47 42 0.0 0.0 0.00 0.00 0.00 63 1020.2
20200119103938 47 42 0.0 0.0 0.00 0.00 0.00 62 1020.2
20200119103437 48 41 0.0 0.0 0.00 0.00 0.00 60 1020.2
20200119102938 48 42 0.0 0.0 0.00 0.00 0.00 60 1020.2
20200119102437 47 41 0.0 0.0 0.00 0.00 0.00 62 1020.2
20200119101938 48 41 0.0 0.0 0.00 0.00 0.00 59 1020.3
20200119101438 49 42 0.0 0.0 0.00 0.00 0.00 56 1020.3
20200119100937 49 41 0.0 0.0 0.00 0.00 0.00 59 1020.2
20200119100441 47 42 0.0 0.0 0.00 0.00 0.00 62 1020.2
20200119095937 47 42 0.0 0.0 0.00 0.00 0.00 61 1020.1
20200119095438 48 41 0.0 0.0 0.00 0.00 0.00 61 1020.1
20200119094937 48 41 0.0 0.0 0.00 0.00 0.00 60 1020.0
20200119094438 48 41 0.0 0.0 0.00 0.00 0.00 60 1020.1
20200119093938 48 41 0.0 0.0 0.00 0.00 0.00 59 1020.0
20200119093441 49 41 0.0 0.0 0.00 0.00 0.00 57 1020.0
20200119092937 49 41 0.0 0.0 0.00 0.00 0.00 57 1020.0
20200119092438 49 40 0.0 0.0 0.00 0.00 0.00 57 1020.0
20200119091938 50 40 0.0 0.0 0.00 0.00 0.00 55 1020.0
20200119091438 49 42 0.0 0.0 0.00 0.00 0.00 56 1019.9
20200119090938 49 42 0.0 0.0 0.00 0.00 0.00 58 1020.0
20200119090437 49 42 0.0 0.0 0.00 0.00 0.00 58 1020.0
20200119085941 50 42 0.0 0.0 0.00 0.00 0.00 56 1019.9
20200119085441 49 42 0.0 0.0 0.00 0.00 0.00 58 1019.9
20200119084938 49 42 0.0 0.0 0.00 0.00 0.00 59 1020.0
20200119084437 48 42 0.0 0.0 0.00 0.00 0.00 60 1020.0
20200119083937 48 42 0.0 0.0 0.00 0.00 0.00 60 1020.0
20200119083437 48 42 0.0 0.0 0.00 0.00 0.00 62 1020.0
20200119082938 48 43 0.0 0.0 0.00 0.00 0.00 61 1019.9
20200119082437 48 43 0.0 0.0 0.00 0.00 0.00 61 1019.9
20200119081937 49 43 0.0 0.0 0.00 0.00 0.00 59 1019.9
20200119081438 47 43 0.0 0.0 0.00 0.00 0.00 63 1019.9
20200119080937 49 43 0.0 0.0 0.00 0.00 0.00 60 1019.9
20200119080437 48 43 0.0 0.0 0.00 0.00 0.00 62 1019.9
20200119075938 49 43 0.0 0.0 0.00 0.00 0.00 60 1019.9
20200119075441 49 43 0.0 0.0 0.00 0.00 0.00 62 1020.0
20200119074937 48 43 0.0 0.0 0.00 0.00 0.00 63 1020.1
20200119074437 48 42 0.0 0.0 0.00 0.00 0.00 63 1020.1
20200119073941 47 43 0.0 0.0 0.00 0.00 0.00 66 1020.2
20200119073437 47 38 0.0 0.0 0.00 0.00 0.00 67 1020.2
20200119072937 46 38 0.0 0.0 0.00 0.00 0.00 68 1020.2
20200119072437 47 38 0.0 0.0 0.00 0.00 0.00 67 1020.3
20200119071938 47 96 0.0 0.0 0.00 0.00 0.00 68 1020.2
20200119071438 48 96 0.0 0.0 0.00 0.00 0.00 65 1020.3
20200119070937 48 96 0.0 0.0 0.00 0.00 0.00 64 1020.2
20200119070438 48 96 0.0 0.0 0.00 0.00 0.00 64 1020.3
20200119065937 48 96 0.0 0.0 0.00 0.00 0.00 66 1020.3
20200119065437 47 98 0.0 0.0 0.00 0.00 0.00 67 1020.3
20200119064938 47 98 0.0 0.0 0.00 0.00 0.00 67 1020.3
20200119064437 47 98 0.0 0.0 0.00 0.00 0.00 68 1020.3
20200119063937 47 98 0.0 0.0 0.00 0.00 0.00 68 1020.3
20200119063441 47 98 0.0 0.0 0.00 0.00 0.00 67 1020.3
20200119062938 47 98 0.0 0.0 0.00 0.00 0.00 67 1020.4
20200119062437 47 98 0.0 0.0 0.00 0.00 0.00 67 1020.4
20200119061937 48 98 0.0 0.0 0.00 0.00 0.00 66 1020.4
20200119061438 48 98 0.0 0.0 0.00 0.00 0.00 67 1020.4
20200119060941 46 98 0.0 0.0 0.00 0.00 0.00 68 1020.4
20200119060438 48 98 0.0 0.0 0.00 0.00 0.00 66 1020.3
20200119055941 48 98 0.0 0.0 0.00 0.00 0.00 64 1020.4
20200119055437 48 98 0.0 0.0 0.00 0.00 0.00 64 1020.4
20200119054937 49 98 0.0 0.0 0.00 0.00 0.00 63 1020.4
20200119054438 49 98 0.0 0.0 0.00 0.00 0.00 62 1020.4
20200119053937 49 98 0.0 0.0 0.00 0.00 0.00 61 1020.5
20200119053438 49 98 0.0 0.0 0.00 0.00 0.00 62 1020.5
20200119052939 49 98 0.0 0.0 0.00 0.00 0.00 63 1020.5
20200119052438 48 28 0.0 0.0 0.00 0.00 0.00 65 1020.6
20200119051938 48 28 0.0 0.0 0.00 0.00 0.00 65 1020.6
20200119051437 49 28 0.0 0.0 0.00 0.00 0.00 64 1020.5
20200119050937 49 28 0.0 0.0 0.00 0.00 0.00 64 1020.5
20200119050437 49 28 0.0 0.0 0.00 0.00 0.00 64 1020.4
20200119045937 48 28 0.0 0.0 0.00 0.00 0.00 65 1020.3
20200119045437 49 28 0.0 0.0 0.00 0.00 0.00 65 1020.2
20200119044938 48 28 0.0 0.0 0.00 0.00 0.00 66 1020.1
20200119044437 49 28 0.0 0.0 0.00 0.00 0.00 64 1020.2
20200119043937 49 28 0.0 0.0 0.00 0.00 0.00 63 1020.2
20200119043438 49 28 0.0 0.0 0.00 0.00 0.00 63 1020.3
20200119042938 49 28 0.0 0.0 0.00 0.00 0.00 64 1020.3
20200119042438 49 28 0.0 0.0 0.00 0.00 0.00 65 1020.2
20200119041937 49 28 0.0 0.0 0.00 0.00 0.00 64 1020.2
20200119041437 49 28 0.0 0.0 0.00 0.00 0.00 63 1020.2
20200119040937 50 28 0.0 0.0 0.00 0.00 0.00 62 1020.2
20200119040438 49 28 0.0 0.0 0.00 0.00 0.00 63 1020.2
20200119035937 49 28 0.0 0.0 0.00 0.00 0.00 65 1020.2
20200119035438 49 28 0.0 0.0 0.00 0.00 0.00 63 1020.2
20200119034937 50 28 0.0 0.0 0.00 0.00 0.00 63 1020.2
20200119034437 50 28 0.0 0.0 0.00 0.00 0.00 63 1020.2
20200119033938 49 28 0.0 0.0 0.00 0.00 0.00 64 1020.2
20200119033438 49 28 0.0 0.0 0.00 0.00 0.00 66 1020.2
20200119032938 49 28 0.0 0.0 0.00 0.00 0.00 65 1020.2
20200119032437 49 28 0.0 0.0 0.00 0.00 0.00 64 1020.2
20200119031940 50 28 0.0 0.0 0.00 0.00 0.00 63 1020.1
20200119031440 51 28 0.0 0.0 0.00 0.00 0.00 62 1020.1
20200119030937 51 28 0.0 0.0 0.00 0.00 0.00 62 1020.1
20200119030438 51 28 0.0 0.0 0.00 0.00 0.00 60 1020.1
20200119025938 51 28 0.0 0.0 0.00 0.00 0.00 58 1020.1
20200119025437 52 28 0.0 0.0 0.00 0.00 0.00 56 1020.1
20200119024937 53 28 0.0 0.0 0.00 0.00 0.00 54 1020.1
20200119024437 53 28 0.0 0.0 0.00 0.00 0.00 54 1020.1
20200119023937 54 28 0.0 0.0 0.00 0.00 0.00 53 1020.0
20200119023437 54 26 0.0 0.0 0.00 0.00 0.00 52 1020.0
20200119022937 55 27 0.0 0.0 0.00 0.00 0.00 51 1020.0
20200119022437 55 24 0.0 1.0 0.00 0.00 0.00 50 1020.0
20200119021937 55 32 0.0 0.0 0.00 0.00 0.00 50 1019.9
20200119021437 55 46 0.0 0.0 0.00 0.00 0.00 50 1019.9
20200119020938 55 34 0.0 0.0 0.00 0.00 0.00 50 1019.9
20200119020437 55 47 0.0 0.0 0.00 0.00 0.00 51 1019.8
20200119015937 55 13 0.0 0.0 0.00 0.00 0.00 52 1019.7
20200119015437 55 19 0.0 0.0 0.00 0.00 0.00 52 1019.7
20200119014937 56 0 0.0 0.0 0.00 0.00 0.00 51 1019.7
20200119014438 56 0 0.0 0.0 0.00 0.00 0.00 50 1019.7
20200119013937 56 0 0.0 0.0 0.00 0.00 0.00 50 1019.8
20200119013438 56 0 0.0 0.0 0.00 0.00 0.00 51 1019.7
20200119012941 57 0 0.0 0.0 0.00 0.00 0.00 49 1019.8
20200119012437 58 0 0.0 0.0 0.00 0.00 0.00 48 1019.7
20200119011937 58 0 0.0 0.0 0.00 0.00 0.00 48 1019.7
20200119011437 58 0 0.0 0.0 0.00 0.00 0.00 49 1019.7
20200119010940 59 0 0.0 0.0 0.00 0.00 0.00 47 1019.7
20200119010437 60 0 0.0 0.0 0.00 0.00 0.00 43 1019.7
20200119005937 61 0 0.0 0.0 0.00 0.00 0.00 42 1019.6
20200119005437 62 0 0.0 0.0 0.00 0.00 0.00 41 1019.6
20200119004937 62 0 0.0 0.0 0.00 0.00 0.00 39 1019.6
20200119004437 63 0 0.0 0.0 0.00 0.00 0.00 39 1019.6
20200119003937 64 0 0.0 0.0 0.00 0.00 0.00 38 1019.6
20200119003437 64 0 0.0 0.0 0.00 0.00 0.00 38 1019.6
20200119002938 65 0 0.0 0.0 0.00 0.00 0.00 36 1019.6
20200119002438 65 0 0.0 0.0 0.00 0.00 0.00 38 1019.6
20200119001938 66 0 0.0 0.0 0.00 0.00 0.00 36 1019.6
20200119001440 67 0 0.0 0.0 0.00 0.00 0.00 36 1019.5
20200119000937 67 0 0.0 0.0 0.00 0.00 0.00 34 1019.5
20200119000443 68 0 0.0 0.0 0.00 0.00 0.00 32 1019.5
20200118235938 68 0 0.0 0.0 0.00 0.00 0.00 33 1019.4
20200118235438 69 0 0.0 0.0 0.00 0.00 0.00 32 1019.4
20200118234938 69 0 0.0 0.0 0.00 0.00 0.00 30 1019.3
20200118234437 69 0 0.0 0.0 0.00 0.00 0.00 32 1019.4
20200118233937 69 0 0.0 0.0 0.00 0.00 0.00 26 1019.4
20200118233437 69 0 0.0 0.0 0.00 0.00 0.00 29 1019.4
20200118232938 69 0 0.0 0.0 0.00 0.00 0.00 31 1019.5
20200118232437 69 0 0.0 0.0 0.00 0.00 0.00 32 1019.5
20200118231941 69 0 0.0 0.0 0.00 0.00 0.00 32 1019.5
20200118231437 69 0 0.0 0.0 0.00 0.00 0.00 33 1019.5
20200118230937 69 0 0.0 0.0 0.00 0.00 0.00 32 1019.6
20200118230437 69 0 0.0 0.0 0.00 0.00 0.00 32 1019.7
20200118225938 69 0 0.0 0.0 0.00 0.00 0.00 32 1019.7
20200118225437 68 0 0.0 0.0 0.00 0.00 0.00 32 1019.7
20200118224937 69 0 0.0 0.0 0.00 0.00 0.00 32 1019.8
20200118224437 69 0 0.0 0.0 0.00 0.00 0.00 31 1019.8
20200118223938 69 0 0.0 0.0 0.00 0.00 0.00 32 1019.8
20200118223437 69 0 0.0 0.0 0.00 0.00 0.00 31 1019.8
20200118222937 69 0 0.0 0.0 0.00 0.00 0.00 32 1019.8
20200118222437 69 0 0.0 0.0 0.00 0.00 0.00 32 1019.8
20200118221937 69 0 0.0 0.0 0.00 0.00 0.00 33 1019.9
20200118221437 69 0 0.0 0.0 0.00 0.00 0.00 32 1019.9
20200118220937 69 0 0.0 0.0 0.00 0.00 0.00 32 1020.0
20200118220437 68 0 0.0 0.0 0.00 0.00 0.00 30 1020.0
20200118215938 68 0 0.0 0.0 0.00 0.00 0.00 32 1020.1
20200118215437 68 0 0.0 0.0 0.00 0.00 0.00 32 1020.2
20200118214937 68 0 0.0 6.0 0.00 0.00 0.00 32 1020.3
20200118214437 68 5 0.0 10.0 0.00 0.00 0.00 31 1020.3
20200118213937 68 0 0.0 9.0 0.00 0.00 0.00 31 1020.3
20200118213438 68 349 5.0 9.0 0.00 0.00 0.00 31 1020.3
20200118212938 68 333 6.0 9.0 0.00 0.00 0.00 30 1020.3
20200118212437 68 345 0.0 8.0 0.00 0.00 0.00 31 1020.4
20200118211937 68 5 2.0 7.0 0.00 0.00 0.00 33 1020.5
20200118211437 68 16 3.0 10.0 0.00 0.00 0.00 32 1020.5
20200118210938 68 355 5.0 7.0 0.00 0.00 0.00 32 1020.7
20200118210437 68 30 0.0 7.0 0.00 0.00 0.00 32 1020.7
20200118205937 68 311 7.0 8.0 0.00 0.00 0.00 29 1020.8
20200118205437 68 346 0.0 7.0 0.00 0.00 0.00 32 1020.9
20200118204937 68 338 0.0 1.0 0.00 0.00 0.00 31 1021.0
20200118204437 68 0 0.0 7.0 0.00 0.00 0.00 31 1021.1
20200118203937 68 348 0.0 7.0 0.00 0.00 0.00 33 1021.1
20200118203437 68 327 3.0 6.0 0.00 0.00 0.00 33 1021.2
20200118202938 68 29 0.0 5.0 0.00 0.00 0.00 31 1021.3
20200118202438 67 5 0.0 8.0 0.00 0.00 0.00 32 1021.4
20200118201941 67 344 2.0 8.0 0.00 0.00 0.00 33 1021.5
20200118201437 67 0 5.0 6.0 0.00 0.00 0.00 31 1021.6
20200118200938 67 355 0.0 7.0 0.00 0.00 0.00 31 1021.7
20200118200437 66 304 2.0 6.0 0.00 0.00 0.00 30 1021.8
20200118195937 66 348 3.0 6.0 0.00 0.00 0.00 31 1022.0
20200118195440 66 304 5.0 6.0 0.00 0.00 0.00 31 1022.2
20200118194937 65 326 0.0 5.0 0.00 0.00 0.00 30 1022.3
20200118194437 65 43 0.0 2.0 0.00 0.00 0.00 33 1022.5
20200118193937 65 338 0.0 5.0 0.00 0.00 0.00 32 1022.6
20200118193437 64 333 3.0 4.0 0.00 0.00 0.00 33 1022.7
20200118192937 64 321 1.0 6.0 0.00 0.00 0.00 31 1022.8
20200118192438 64 355 0.0 0.0 0.00 0.00 0.00 31 1022.9
20200118191937 63 315 0.0 0.0 0.00 0.00 0.00 36 1023.0
20200118191437 61 212 0.0 0.0 0.00 0.00 0.00 44 1023.2
20200118190937 61 214 0.0 0.0 0.00 0.00 0.00 44 1023.3
20200118190437 61 250 0.0 0.0 0.00 0.00 0.00 43 1023.5
20200118185937 60 266 0.0 0.0 0.00 0.00 0.00 46 1023.6
20200118185437 60 260 0.0 0.0 0.00 0.00 0.00 46 1023.7
20200118184937 60 239 0.0 0.0 0.00 0.00 0.00 49 1023.7
20200118184437 59 253 0.0 0.0 0.00 0.00 0.00 47 1023.8
20200118183937 59 253 0.0 0.0 0.00 0.00 0.00 49 1023.8
20200118183437 58 236 0.0 0.0 0.00 0.00 0.00 49 1023.8
20200118182937 58 264 0.0 0.0 0.00 0.00 0.00 48 1023.8
20200118182438 58 219 0.0 0.0 0.00 0.00 0.00 51 1023.9
20200118181937 58 249 0.0 0.0 0.00 0.00 0.00 51 1023.9
20200118181437 57 219 0.0 0.0 0.00 0.00 0.00 53 1023.9
20200118180938 57 218 0.0 0.0 0.00 0.00 0.00 52 1024.0
20200118180437 57 206 0.0 0.0 0.00 0.00 0.00 53 1024.0
20200118175937 56 233 0.0 0.0 0.00 0.00 0.00 55 1024.0
20200118175437 56 225 0.0 0.0 0.00 0.00 0.00 55 1024.0
20200118174937 56 245 0.0 0.0 0.00 0.00 0.00 53 1024.0
20200118174438 56 226 0.0 0.0 0.00 0.00 0.00 57 1024.1
20200118173937 56 202 0.0 0.0 0.00 0.00 0.00 55 1024.0
20200118173437 56 229 0.0 0.0 0.00 0.00 0.00 54 1024.1
20200118172937 56 199 0.0 0.0 0.00 0.00 0.00 53 1024.1
20200118172437 55 235 0.0 0.0 0.00 0.00 0.00 54 1024.0
20200118171938 55 236 0.0 0.0 0.00 0.00 0.00 55 1024.0
20200118171437 55 236 0.0 0.0 0.00 0.00 0.00 54 1024.0
20200118170938 54 236 0.0 0.0 0.00 0.00 0.00 56 1024.0
20200118170437 54 241 0.0 0.0 0.00 0.00 0.00 56 1024.0
20200118165937 54 211 0.0 0.0 0.00 0.00 0.00 57 1023.9
20200118165437 54 206 0.0 0.0 0.00 0.00 0.00 56 1023.9
20200118164937 54 196 0.0 0.0 0.00 0.00 0.00 58 1023.8
20200118164438 54 184 0.0 0.0 0.00 0.00 0.00 57 1023.7
20200118163937 53 161 0.0 0.0 0.00 0.00 0.00 57 1023.6
20200118163437 53 161 0.0 0.0 0.00 0.00 0.00 59 1023.5
20200118162937 53 118 0.0 0.0 0.00 0.00 0.00 60 1023.5
20200118162437 52 113 0.0 0.0 0.00 0.00 0.00 59 1023.5
20200118161937 52 107 0.0 0.0 0.00 0.00 0.00 61 1023.4
20200118161437 51 107 0.0 0.0 0.00 0.00 0.00 63 1023.3
20200118160937 51 107 0.0 0.0 0.00 0.00 0.00 62 1023.1
20200118160437 50 107 0.0 0.0 0.00 0.00 0.00 66 1023.0
20200118155937 50 107 0.0 0.0 0.00 0.00 0.00 70 1023.0
20200118155438 49 107 0.0 0.0 0.00 0.00 0.00 68 1022.9
20200118154937 48 107 0.0 0.0 0.00 0.00 0.00 70 1022.9
20200118154437 47 107 0.0 0.0 0.00 0.00 0.00 74 1022.8
20200118153937 46 95 0.0 0.0 0.00 0.00 0.00 74 1022.7
20200118153440 45 95 0.0 0.0 0.00 0.00 0.00 75 1022.7
20200118152937 44 95 0.0 0.0 0.00 0.00 0.00 78 1022.7
20200118152437 43 95 0.0 0.0 0.00 0.00 0.00 80 1022.7
20200118151937 42 95 0.0 0.0 0.00 0.00 0.00 83 1022.6
20200118151437 41 111 0.0 0.0 0.00 0.00 0.00 84 1022.6
20200118150937 40 111 0.0 0.0 0.00 0.00 0.00 85 1022.6
20200118150437 39 111 0.0 0.0 0.00 0.00 0.00 86 1022.5
20200118145937 38 111 0.0 0.0 0.00 0.00 0.00 87 1022.5
20200118145440 38 111 0.0 0.0 0.00 0.00 0.00 86 1022.5
20200118144940 38 111 0.0 0.0 0.00 0.00 0.00 86 1022.5
20200118144437 38 111 0.0 0.0 0.00 0.00 0.00 87 1022.5
20200118143937 37 111 0.0 0.0 0.00 0.00 0.00 86 1022.4
20200118143440 38 111 0.0 0.0 0.00 0.00 0.00 85 1022.5
20200118142940 38 111 0.0 0.0 0.00 0.00 0.00 85 1022.4
20200118142437 38 111 0.0 0.0 0.00 0.00 0.00 85 1022.4
20200118141937 38 111 0.0 0.0 0.00 0.00 0.00 85 1022.4
20200118141437 38 111 0.0 0.0 0.00 0.00 0.00 84 1022.3
20200118140937 38 111 0.0 0.0 0.00 0.00 0.00 84 1022.2
20200118140437 38 111 0.0 0.0 0.00 0.00 0.00 85 1022.2
20200118135940 38 111 0.0 0.0 0.00 0.00 0.00 84 1022.1
20200118135437 38 111 0.0 0.0 0.00 0.00 0.00 84 1022.0
20200118134937 38 111 0.0 0.0 0.00 0.00 0.00 85 1022.0
20200118134438 38 111 0.0 0.0 0.00 0.00 0.00 85 1021.9
20200118133940 38 111 0.0 0.0 0.00 0.00 0.00 85 1021.8
20200118133437 38 111 0.0 0.0 0.00 0.00 0.00 85 1021.8
20200118132937 38 111 0.0 0.0 0.00 0.00 0.00 84 1021.8
20200118132437 38 111 0.0 0.0 0.00 0.00 0.00 82 1021.6
20200118131937 39 111 0.0 0.0 0.00 0.00 0.00 81 1021.6
20200118131437 39 111 0.0 0.0 0.00 0.00 0.00 81 1021.6
20200118130937 39 111 0.0 0.0 0.00 0.00 0.00 82 1021.4
20200118130437 39 111 0.0 0.0 0.00 0.00 0.00 82 1021.6